This is the latest recevied weather packets stored in our database for station/object JE6MIQ-13. If no packets are shown the sender has not sent any weather packets the latest 10 day(s).
| Time | Temp. | Humidity | Pressure | Rain* | Wind** | Luminosity | Snow |
|---|---|---|---|---|---|---|---|
| 1777534353 | 15° C | 75% | 1010.6 hPa | 0 mm | - | - | - |
| 1777533753 | 14.44° C | 75% | 1010.8 hPa | 0 mm | - | - | - |
| 1777533153 | 15° C | 75% | 1010.8 hPa | 0 mm | - | - | - |
| 1777532553 | 15° C | 74% | 1010.7 hPa | 0 mm | - | - | - |
| 1777531951 | 15° C | 73% | 1011 hPa | 0 mm | - | - | - |
| 1777531352 | 15° C | 71% | 1011 hPa | 0 mm | - | - | - |
| 1777530752 | 15° C | 69% | 1011.4 hPa | 0 mm | - | - | - |
| 1777530152 | 15° C | 68% | 1011.6 hPa | 0 mm | - | - | - |
| 1777529553 | 15° C | 66% | 1011.9 hPa | 0 mm | - | - | - |
| 1777528953 | 15° C | 63% | 1011.9 hPa | 0 mm | - | - | - |
| 1777528351 | 15° C | 61% | 1012.1 hPa | 0 mm | - | - | - |
| 1777527753 | 15° C | 60% | 1012.1 hPa | 0 mm | - | - | - |
| 1777527151 | 15.56° C | 57% | 1012.4 hPa | 0 mm | - | - | - |
| 1777526552 | 15.56° C | 53% | 1012.5 hPa | 0 mm | - | - | - |
| 1777525953 | 15.56° C | 52% | 1012.5 hPa | 0 mm | - | - | - |
| 1777525352 | 16.11° C | 51% | 1012.6 hPa | 0 mm | - | - | - |
| 1777524753 | 16.11° C | 52% | 1012.7 hPa | 0 mm | - | - | - |
| 1777524151 | 16.11° C | 53% | 1012.7 hPa | 0 mm | - | - | - |
| 1777523552 | 16.11° C | 55% | 1012.6 hPa | 0 mm | - | - | - |
| 1777522952 | 16.11° C | 56% | 1012.8 hPa | 0 mm | - | - | - |
| 1777522353 | 15.56° C | 58% | 1012.8 hPa | 0 mm | - | - | - |
| 1777521752 | 16.11° C | 58% | 1013 hPa | 0 mm | - | - | - |
| 1777521153 | 15.56° C | 61% | 1012.8 hPa | 0 mm | - | - | - |
| 1777520551 | 16.11° C | 62% | 1012.8 hPa | 0 mm | - | - | - |
| 1777519952 | 16.11° C | 61% | 1012.7 hPa | 0 mm | - | - | - |
* Rain latest hour (hover to see other rain measurements)
** Current wind speed in m/s (hover to see current wind gust speed)